Weather History for KCNY - March, 2012

Change the Weather History Date:

Tuesday, March 6, 2012

  Actual Average Record
Temperature  
Mean Temperature 52 °F 42 °F  
Max Temperature 66 °F 55 °F 80 °F (1972)
Min Temperature 37 °F 29 °F 11 °F (1939)
Degree Days  
Heating Degree Days 13 23  
Month to date heating degree days 155 145  
Since 1 July heating degree days 4345 4554  
Cooling Degree Days 0 0  
Month to date cooling degree days 0 0  
Year to date cooling degree days 0 0  
Growing Degree Days 2 (Base 50)    
Moisture  
Dew Point 12 °F    
Average Humidity 28    
Maximum Humidity 48    
Minimum Humidity 8    
Precipitation  
Precipitation 0.00 in 0.03 in 0.26 in (1980)
Month to date precipitation T 0.16  
Year to date precipitation 0.55 1.32  
Sea Level Pressure  
Sea Level Pressure 29.50 in    
Wind  
Wind Speed 14 mph (South)    
Max Wind Speed 32 mph    
Max Gust Speed 41 mph    
Visibility 10 miles    
Events      
T = Trace of Precipitation, MM = Missing Value Source: NWS Daily Summary

Daily Weather History Graph

Daily Weather History Graph

Search for Another Location

Airport or City:

Trip Planner

Search our weather history database for the weather conditions in past years. The results will help you decide how hot, cold, wet, or windy it might be!

Date:

Astronomy

Mar. 06, 2012 Rise Set
Actual Time 6:43 AM MST 6:17 PM MST
Civil Twilight 6:16 AM MST 6:44 PM MST
Nautical Twilight 5:45 AM MST 7:15 PM MST
Astronomical Twilight 5:15 AM MST 7:46 PM MST
Moon 4:48 PM MST (3/6) 5:20 AM MST (3/6)
Length of Visible Light 12h 27m
Length of Day
11h 34m
Waxing Gibbous, 96% of the Moon is Illuminated
Mar 6
Waxing Gibbous
Mar 8
Full
Mar 14
Last Quarter
Mar 22
New
Mar 30
First Quarter

Hourly Weather History & Observations

Time (MST) Temp. Windchill Dew Point Humidity Pressure Visibility Wind Dir Wind Speed Gust Speed Precip Events Conditions
12:53 AM 39.9 °F - 21.0 °F 47% 29.85 in 10.0 mi Calm Calm - N/A   Clear
1:53 AM 41.0 °F 36.4 °F 21.0 °F 45% 29.81 in 10.0 mi ESE 6.9 mph - N/A   Clear
2:53 AM 39.9 °F - 19.9 °F 45% 29.77 in 10.0 mi Calm Calm - N/A   Clear
3:53 AM 39.9 °F - 19.9 °F 45% 29.74 in 10.0 mi Calm Calm - N/A   Clear
4:53 AM 39.0 °F 36.8 °F 19.9 °F 46% 29.71 in 10.0 mi East 3.5 mph - N/A   Clear
5:53 AM 45.0 °F 43.5 °F 19.0 °F 36% 29.68 in 10.0 mi Variable 3.5 mph - N/A   Clear
6:53 AM 46.0 °F 41.9 °F 19.0 °F 34% 29.68 in 10.0 mi SE 8.1 mph - N/A   Clear
7:53 AM 45.0 °F 42.6 °F 19.0 °F 36% 29.69 in 10.0 mi ESE 4.6 mph - N/A   Clear
8:53 AM 55.0 °F - 18.0 °F 23% 29.65 in 10.0 mi SSE 13.8 mph - N/A   Clear
9:53 AM 57.9 °F - 16.0 °F 19% 29.60 in 10.0 mi SSE 18.4 mph 24.2 mph N/A   Clear
10:53 AM 61.0 °F - 12.0 °F 15% 29.55 in 10.0 mi South 21.9 mph 29.9 mph N/A   Clear
11:53 AM 63.0 °F - 12.0 °F 14% 29.50 in 10.0 mi South 23.0 mph 32.2 mph N/A   Clear
12:53 PM 64.0 °F - 9.0 °F 12% 29.45 in 10.0 mi SSW 26.5 mph 36.8 mph N/A   Clear
1:53 PM 64.0 °F - 8.1 °F 11% 29.38 in 10.0 mi South 23.0 mph 35.7 mph N/A   Clear
2:53 PM 63.0 °F - 10.9 °F 13% 29.35 in 10.0 mi South 18.4 mph 23.0 mph N/A   Clear
3:53 PM 62.1 °F - 10.9 °F 13% 29.32 in 10.0 mi South 17.3 mph - N/A   Clear
4:53 PM 61.0 °F - 6.1 °F 11% 29.29 in 10.0 mi SW 15.0 mph 21.9 mph N/A   Clear
5:53 PM 63.0 °F - 1.9 °F 9% 29.26 in 10.0 mi SW 19.6 mph 26.5 mph N/A   Clear
6:53 PM 60.8 °F - 1.4 °F 9% 29.35 in 10.0 mi WSW 13.8 mph 24.2 mph N/A   Clear
7:53 PM 57.9 °F - 3.9 °F 11% 29.26 in 10.0 mi SSW 13.8 mph - N/A   Clear
8:53 PM 57.9 °F - 3.9 °F 11% 29.25 in 10.0 mi SSW 17.3 mph 31.1 mph N/A   Clear
9:53 PM 57.0 °F - 1.9 °F 11% 29.26 in 10.0 mi SSW 19.6 mph - N/A   Clear
10:53 PM 55.9 °F - 6.1 °F 14% 29.27 in 10.0 mi South 15.0 mph 29.9 mph N/A   Clear
11:53 PM 55.0 °F - 8.1 °F 15% 29.29 in 10.0 mi South 20.7 mph 24.2 mph N/A   Mostly Cloudy